Weather History for New Bern, NC

Change the Weather History Date:

Tuesday, June 4, 2013

  Actual Average Record
Temperature  
Mean Temperature 76 °F 75 °F  
Max Temperature 84 °F 85 °F 95 °F (1993)
Min Temperature 68 °F 65 °F 52 °F (1955)
Degree Days  
Heating Degree Days 0 0  
Month to date heating degree days 0 0  
Since 1 June heating degree days 0 0  
Since 1 July heating degree days 2585 2701  
Cooling Degree Days 11 10  
Month to date cooling degree days 49 37  
Year to date cooling degree days 297 280  
Since 1 June cooling degree days 49 37  
Growing Degree Days 26 (Base 50)    
Moisture  
Dew Point 68 °F    
Average Humidity 76    
Maximum Humidity 97    
Minimum Humidity 54    
Precipitation  
Precipitation 0.00 in 0.14 in 1.72 in (1949)
Month to date precipitation 1.14 0.59  
Year to date precipitation 12.49 19.98  
Snow  
Snow 0.00 in - - ()
Month to date snowfall 0.0  
Since 1 July snowfall T  
Snow Depth 0.00 in    
Sea Level Pressure  
Sea Level Pressure 30.00 in    
Wind  
Wind Speed 7 mph (NE)    
Max Wind Speed 14 mph    
Max Gust Speed 17 mph    
Visibility 9 miles    
Events      
T = Trace of Precipitation, MM = Missing Value Source: NWS Daily Summary

Daily Weather History Graph

Daily Weather History Graph

Search for Another Location

Airport:

Trip Planner

Search our weather history database for the weather conditions in past years. The results will help you decide how hot, cold, wet, or windy it might be!

Date:

Astronomy

Jun. 04, 2013 Rise Set
Actual Time 5:54 AM EDT 8:19 PM EDT
Civil Twilight 5:25 AM EDT 8:48 PM EDT
Nautical Twilight 4:48 AM EDT 9:24 PM EDT
Astronomical Twilight 4:09 AM EDT 10:04 PM EDT
Moon 3:15 AM EDT (6/4) 4:52 PM EDT (6/4)
Length of Visible Light 15h 23m
Length of Day
14h 24m
Waning Crescent, 14% of the Moon is Illuminated
Jun 4
Waning Crescent
Jun 8
New
Jun 16
First Quarter
Jun 23
Full
Jun 30
Last Quarter

Hourly Weather History & Observations

Time (EDT) Temp. Heat Index Dew Point Humidity Pressure Visibility Wind Dir Wind Speed Gust Speed Precip Events Conditions
12:14 AM 69.8 °F - 68.0 °F 94% 29.96 in 10.0 mi SSE 3.5 mph - N/A   Overcast
12:54 AM 71.1 °F - 68.0 °F 90% 29.96 in 10.0 mi Calm Calm - N/A   Mostly Cloudy
1:09 AM 69.8 °F - 68.0 °F 94% 29.95 in 10.0 mi Calm Calm - N/A   Mostly Cloudy
1:18 AM 69.8 °F - 68.0 °F 94% 29.95 in 10.0 mi Calm Calm - N/A   Scattered Clouds
1:54 AM 70.0 °F - 68.0 °F 93% 29.94 in 10.0 mi Calm Calm - N/A   Partly Cloudy
2:06 AM 71.6 °F - 69.8 °F 94% 29.95 in 10.0 mi Calm Calm - N/A   Mostly Cloudy
2:52 AM 69.8 °F - 68.0 °F 94% 29.93 in 10.0 mi Calm Calm - N/A   Scattered Clouds
2:54 AM 70.0 °F - 68.0 °F 93% 29.94 in 10.0 mi Calm Calm - N/A   Partly Cloudy
3:18 AM 69.8 °F - 68.0 °F 94% 29.93 in 10.0 mi South 4.6 mph - N/A   Mostly Cloudy
3:44 AM 69.8 °F - 68.0 °F 94% 29.93 in 10.0 mi Calm Calm - N/A   Partly Cloudy
3:54 AM 69.1 °F - 66.9 °F 93% 29.94 in 9.0 mi Calm Calm - N/A   Partly Cloudy
4:10 AM 69.8 °F - 66.2 °F 88% 29.93 in 7.0 mi Calm Calm - N/A   Scattered Clouds
4:38 AM 69.8 °F - 66.2 °F 88% 29.93 in 2.0 mi Calm Calm - N/A   Mostly Cloudy
4:54 AM 69.1 °F - 66.9 °F 93% 29.94 in 4.0 mi NW 3.5 mph - N/A   Overcast
5:21 AM 69.8 °F - 68.0 °F 94% 29.95 in 4.0 mi NW 6.9 mph - N/A   Overcast
5:40 AM 71.6 °F - 69.8 °F 94% 29.95 in 8.0 mi NW 3.5 mph - N/A   Overcast
5:54 AM 71.1 °F - 68.0 °F 90% 29.96 in 10.0 mi NNW 5.8 mph - N/A   Overcast
6:39 AM 71.6 °F - 69.8 °F 94% 29.97 in 7.0 mi Calm Calm - N/A   Overcast
6:54 AM 72.0 °F - 69.1 °F 91% 29.97 in 5.0 mi NW 3.5 mph - N/A   Overcast
7:35 AM 71.6 °F - 69.8 °F 94% 29.99 in 7.0 mi North 4.6 mph - N/A   Overcast
7:54 AM 73.0 °F - 70.0 °F 90% 29.99 in 8.0 mi NNE 5.8 mph - N/A   Overcast
8:54 AM 73.0 °F - 70.0 °F 90% 30.01 in 8.0 mi NNE 6.9 mph - N/A   Overcast
9:04 AM 73.4 °F - 69.8 °F 88% 30.02 in 9.0 mi NE 6.9 mph - N/A   Overcast
9:54 AM 75.9 °F - 71.1 °F 85% 30.03 in 9.0 mi ENE 4.6 mph - N/A   Overcast
10:21 AM 75.2 °F - 69.8 °F 83% 30.04 in 10.0 mi NE 9.2 mph - N/A   Overcast
10:54 AM 78.1 °F - 70.0 °F 76% 30.04 in 10.0 mi NE 9.2 mph - N/A   Overcast
11:54 AM 80.1 °F 82.9 °F 69.1 °F 69% 30.05 in 10.0 mi NE 11.5 mph - N/A   Mostly Cloudy
12:02 PM 80.6 °F 83.9 °F 69.8 °F 70% 30.05 in 10.0 mi NE 8.1 mph - N/A   Overcast
12:23 PM 78.8 °F - 69.8 °F 74% 30.06 in 10.0 mi North 8.1 mph - N/A   Overcast
12:54 PM 80.1 °F 82.9 °F 69.1 °F 69% 30.06 in 10.0 mi NNE 9.2 mph - N/A   Mostly Cloudy
1:07 PM 80.6 °F 83.9 °F 69.8 °F 70% 30.05 in 10.0 mi NNE 8.1 mph - N/A   Overcast
1:20 PM 80.6 °F 83.9 °F 69.8 °F 70% 30.05 in 10.0 mi ENE 10.4 mph - N/A   Overcast
1:54 PM 81.0 °F 84.1 °F 69.1 °F 67% 30.05 in 10.0 mi NE 10.4 mph - N/A   Overcast
2:54 PM 80.1 °F 82.3 °F 66.9 °F 64% 30.04 in 10.0 mi ENE 8.1 mph - N/A   Overcast
3:54 PM 84.0 °F 86.3 °F 66.0 °F 55% 30.03 in 10.0 mi NE 9.2 mph - N/A   Clear
4:54 PM 82.0 °F 84.1 °F 66.0 °F 58% 30.02 in 10.0 mi ENE 10.4 mph - N/A   Mostly Cloudy
5:54 PM 80.1 °F 81.7 °F 64.0 °F 58% 30.04 in 10.0 mi NE 10.4 mph - N/A   Scattered Clouds
6:54 PM 80.1 °F 81.5 °F 63.0 °F 56% 30.04 in 10.0 mi NE 12.7 mph - N/A   Clear
7:54 PM 77.0 °F - 63.0 °F 62% 30.06 in 10.0 mi ENE 8.1 mph - N/A   Clear
8:54 PM 73.9 °F - 61.0 °F 64% 30.08 in 10.0 mi East 6.9 mph - N/A   Clear
9:54 PM 72.0 °F - 62.1 °F 71% 30.11 in 10.0 mi East 5.8 mph - N/A   Clear
10:54 PM 71.1 °F - 64.9 °F 81% 30.12 in 10.0 mi ENE 4.6 mph - N/A   Clear
11:54 PM 69.1 °F - 63.0 °F 81% 30.12 in 10.0 mi ENE 5.8 mph - N/A   Partly Cloudy